SCP
0 0 1 1 1 1 0 0 0 0 0 0 0 0 0 0 0 0 0 0 0 0 0 0 0 0 0 0 0 0 0 0
1 1 1 1 1 0 0 0 0 0 0 0 0 0 0 0 0 0 0 0 0 0 0 0 0 0 0 0 0 0 0 0
0 0 0 0 0 0 0 0 0 0 0 0 0 0 0 0 0 0 0 0 0 0 0 0 0 0 0 0 0 0 0 0
0 0 0 0 0 0 0 0 0 0 0 0 0 0 0 0 0 0 0 0 0 0 0 0 0 0 0 0 0 0 0 0
0 0 0 0 0 0 0 0 0 0 0 0 0 0 0 0 0 0 0 0 0 0 0 0 0 0 0 0 0 0 0 0
0 0 0 0 0 0 0 0 0 0 0 0 0 0 0 0 0 0 0 0 0 0 0 0 0 0 0 0 0 0 0 0
0 0 0 0 0 0 0 0 0 0 0 0 0 0 0 0 0 0 0 0 0 0 0 0 0 0 0 0 0 0 0 0
0 0 0 0 0 0 0 0 0 0 0 0 0 0 0 0 0 0 0 0 0 0 0 0 0 0 0 0 0 0 0 0
0 0 0 0 0 0 0 0 0 0 0 0 0 0 0 0 0 0 0 0 0 0 0 0 0 0 0 0 0 0 0 0
0 0 0 0 0 0 0 0 0 0 0 0 0 0 0 0 0 0 0 0 0 0 0 0 0 0 0 0 0 0 0 0
0 0 0 0 0 0 0 0 0 0 0 0 0 0 0 0 0 0 0 0 0 0 0 0 0 0 0 0 0 0 0 0
0 0 0 0 0 0 0 0 0 0 0 0 0 0 0 0 0 0 0 0 0 0 0 0 0 0 0 0 0 0 0 0
0 0 0 0 0 0 0 0 0 0 0 0 0 0 0 0 0 0 0 0 0 0 0 0 0 0 0 0 0 0 0 0
0 0 0 0 0 0 0 0 0 0 0 0 0 0 0 0 0 0 0 0 0 0 0 0 0 0 0 0 0 0 0 0
0 0 0 0 0 0 0 0 0 0 0 0 0 0 0 0 0 0 0 0 0 0 0 0 0 0 0 0 0 0 0 0
0 0 0 0 0 0 0 0 0 0 0 0 0 0 0 0 0 0 0 0 0 0 0 0 0 0 0 0 0 0 0 0
0 0 0 0 0 0 0 0 0 0 0 0 0 0 0 0 0 0 0 0 0 0 0 0 0 0 0 0 0 0 0 0
0 0 0 0 0 0 0 0 0 0 0 0 0 0 0 0 0 0 0 0 0 0 0 0 0 0 0 0 0 0 0 0
0 0 0 0 0 0 0 0 0 0 0 0 0 0 0 0 0 0 0 0 0 0 0 0 0 0 0 0 0 0 0 0
-0 0 0 -0 -0 -0 0 0 0 0 0 0 0 0 0 0 0 0 0 0 0 0 0 0 0 0 0 0 0 0 0 0
Wind_Speed_500mb
42 40 39 38 40 39 35 34 35 32 30 27 24 23 22 19 17 14 12 10 8 6 8 8 7 5 5 6 6 7 8 9
42 41 39 37 36 34 35 35 33 34 33 26 26 25 24 21 19 16 14 13 12 9 8 6 5 5 6 7 9 10 10 11
49 47 43 43 42 44 43 41 36 33 31 28 26 26 23 21 19 16 14 12 11 9 7 5 4 5 6 8 8 10 11 11
48 47 49 50 51 50 47 46 42 38 35 31 30 29 28 21 20 18 16 13 11 9 7 6 7 8 9 7 7 9 9 11
50 49 49 50 54 55 54 51 49 44 39 36 34 33 25 22 22 20 17 15 12 11 9 9 9 10 10 9 8 8 10 13
49 51 55 57 60 62 57 55 50 44 41 40 39 35 29 27 25 22 20 18 16 13 11 9 9 9 9 9 10 10 12 15
57 54 53 52 53 55 55 53 47 42 42 43 42 40 34 32 30 27 22 18 16 13 12 10 9 10 12 11 13 14 15 16
57 61 54 51 51 48 49 49 46 46 43 44 41 35 32 34 34 29 24 21 17 14 12 11 13 14 16 16 16 16 16 16
60 63 60 54 54 52 54 52 48 45 42 41 39 36 35 33 31 27 26 23 21 20 20 18 18 19 18 18 17 17 16 15
55 63 66 58 57 56 55 50 46 44 43 41 37 36 36 34 31 28 27 26 26 26 26 26 25 25 26 25 21 18 15 13
55 63 68 64 62 58 53 48 45 43 40 36 35 36 36 34 32 29 26 26 28 27 28 27 29 33 33 30 25 20 16 12
56 63 69 67 65 62 58 54 50 47 43 41 37 37 36 34 32 30 29 30 30 31 31 35 35 41 42 36 29 22 16 12
73 65 74 75 75 71 66 64 59 56 51 45 40 36 35 34 32 31 31 30 30 32 35 36 45 43 45 41 33 25 21 16
70 72 75 80 79 79 77 67 62 56 50 43 37 35 34 35 33 30 31 33 34 34 35 44 46 54 44 37 23 19 23 22
61 67 75 81 83 85 73 64 59 56 51 46 41 38 37 37 36 36 33 32 33 36 38 41 49 57 48 24 19 18 31 20
42 51 63 76 83 82 76 69 64 59 51 46 42 39 36 35 33 32 34 33 34 36 37 37 39 50 54 47 27 22 21 20
30 35 50 65 68 64 63 63 54 34 29 32 33 32 32 32 32 32 32 34 33 35 36 37 40 43 53 53 36 27 28 22
20 34 43 49 47 32 21 13 25 26 25 28 32 29 26 29 32 30 30 29 31 33 33 36 38 44 54 55 53 44 40 31
14 4 11 9 12 18 20 16 45 27 33 42 35 24 23 31 32 29 31 27 29 29 29 30 33 36 43 45 57 48 37 41
19 26 14 8 10 9 23 21 32 31 32 32 29 23 28 30 31 33 31 29 27 26 26 27 30 34 36 38 40 37 38 41
Wind_Direction_500mb
192 192 195 198 200 198 197 196 201 210 211 212 209 214 216 213 210 206 197 186 179 164 129 116 108 97 86 98 123 141 154 152
198 193 194 196 199 199 204 203 204 219 221 208 215 217 214 208 207 205 195 185 177 173 142 121 116 107 104 108 116 119 122 124
202 202 201 200 201 200 207 210 211 219 223 225 223 224 220 215 210 204 198 190 180 175 158 150 139 124 124 127 127 122 122 116
209 212 213 210 211 211 211 214 220 223 231 231 226 220 210 212 219 210 202 197 195 185 177 162 155 146 143 138 132 119 114 100
214 217 217 223 221 220 220 221 223 230 232 230 226 221 225 221 212 214 208 203 194 187 183 173 162 154 151 147 140 134 123 110
219 219 225 226 223 222 225 223 229 233 235 230 226 225 229 219 216 213 206 204 200 192 182 170 160 148 139 141 140 131 116 112
219 221 226 227 226 224 222 226 230 233 232 232 230 229 228 220 220 215 210 210 205 196 179 166 158 152 146 143 136 125 120 119
224 224 231 226 227 228 233 232 231 227 233 233 233 236 229 222 215 211 210 209 207 201 193 182 176 166 160 150 144 132 120 114
230 227 230 229 232 234 231 227 225 224 227 231 234 231 226 224 223 214 203 199 196 191 185 181 179 168 164 154 147 134 126 120
232 228 228 228 229 233 228 224 223 224 226 227 227 226 223 223 226 217 202 195 194 190 183 175 171 171 170 162 155 144 134 122
236 229 227 228 230 229 224 224 223 223 223 226 223 226 226 223 221 219 212 205 203 196 185 181 178 175 172 164 156 151 144 137
244 234 225 227 231 225 220 220 219 220 221 220 223 226 226 224 219 213 210 206 203 195 189 178 182 180 169 163 159 158 154 147
251 239 227 225 228 221 218 218 218 219 218 221 223 222 222 219 218 214 207 204 205 197 189 188 179 182 171 157 154 160 165 160
251 246 234 227 229 227 223 218 219 220 222 222 223 218 216 217 212 214 210 203 199 197 198 185 186 180 178 158 144 150 167 167
256 249 242 233 233 229 225 223 222 219 220 223 215 214 213 212 207 201 205 201 201 197 195 200 191 188 190 174 161 178 162 169
263 256 245 234 227 225 225 224 220 222 224 221 213 210 210 210 206 205 198 199 200 201 200 203 207 199 198 206 203 187 174 166
278 252 238 234 226 220 215 214 214 221 216 227 220 203 211 212 210 213 206 197 198 204 202 205 205 216 213 211 211 199 189 162
256 234 227 231 224 221 229 244 250 251 244 224 233 219 209 222 222 219 216 200 201 202 203 209 215 220 225 226 227 210 197 199
231 217 209 182 203 245 228 238 244 222 239 242 238 232 245 240 230 219 218 203 204 203 205 215 220 223 227 228 228 230 232 227
173 142 119 14 303 246 210 213 207 218 208 221 228 235 231 222 224 220 215 209 205 204 207 214 217 221 225 223 223 221 214 220
Wind_Speed_850mb
42 40 39 38 40 39 35 34 35 32 30 27 24 23 22 19 17 14 12 10 8 6 8 8 7 5 5 6 6 7 8 9
42 41 39 37 36 34 35 35 33 34 33 26 26 25 24 21 19 16 14 13 12 9 8 6 5 5 6 7 9 10 10 11
49 47 43 43 42 44 43 41 36 33 31 28 26 26 23 21 19 16 14 12 11 9 7 5 4 5 6 8 8 10 11 11
48 47 49 50 51 50 47 46 42 38 35 31 30 29 28 21 20 18 16 13 11 9 7 6 7 8 9 7 7 9 9 11
50 49 49 50 54 55 54 51 49 44 39 36 34 33 25 22 22 20 17 15 12 11 9 9 9 10 10 9 8 8 10 13
49 51 55 57 60 62 57 55 50 44 41 40 39 35 29 27 25 22 20 18 16 13 11 9 9 9 9 9 10 10 12 15
57 54 53 52 53 55 55 53 47 42 42 43 42 40 34 32 30 27 22 18 16 13 12 10 9 10 12 11 13 14 15 16
57 61 54 51 51 48 49 49 46 46 43 44 41 35 32 34 34 29 24 21 17 14 12 11 13 14 16 16 16 16 16 16
60 63 60 54 54 52 54 52 48 45 42 41 39 36 35 33 31 27 26 23 21 20 20 18 18 19 18 18 17 17 16 15
55 63 66 58 57 56 55 50 46 44 43 41 37 36 36 34 31 28 27 26 26 26 26 26 25 25 26 25 21 18 15 13
55 63 68 64 62 58 53 48 45 43 40 36 35 36 36 34 32 29 26 26 28 27 28 27 29 33 33 30 25 20 16 12
56 63 69 67 65 62 58 54 50 47 43 41 37 37 36 34 32 30 29 30 30 31 31 35 35 41 42 36 29 22 16 12
73 65 74 75 75 71 66 64 59 56 51 45 40 36 35 34 32 31 31 30 30 32 35 36 45 43 45 41 33 25 21 16
70 72 75 80 79 79 77 67 62 56 50 43 37 35 34 35 33 30 31 33 34 34 35 44 46 54 44 37 23 19 23 22
61 67 75 81 83 85 73 64 59 56 51 46 41 38 37 37 36 36 33 32 33 36 38 41 49 57 48 24 19 18 31 20
42 51 63 76 83 82 76 69 64 59 51 46 42 39 36 35 33 32 34 33 34 36 37 37 39 50 54 47 27 22 21 20
30 35 50 65 68 64 63 63 54 34 29 32 33 32 32 32 32 32 32 34 33 35 36 37 40 43 53 53 36 27 28 22
20 34 43 49 47 32 21 13 25 26 25 28 32 29 26 29 32 30 30 29 31 33 33 36 38 44 54 55 53 44 40 31
14 4 11 9 12 18 20 16 45 27 33 42 35 24 23 31 32 29 31 27 29 29 29 30 33 36 43 45 57 48 37 41
19 26 14 8 10 9 23 21 32 31 32 32 29 23 28 30 31 33 31 29 27 26 26 27 30 34 36 38 40 37 38 41
Wind_Direction_850mb
192 192 195 198 200 198 197 196 201 210 211 212 209 214 216 213 210 206 197 186 179 164 129 116 108 97 86 98 123 141 154 152
198 193 194 196 199 199 204 203 204 219 221 208 215 217 214 208 207 205 195 185 177 173 142 121 116 107 104 108 116 119 122 124
202 202 201 200 201 200 207 210 211 219 223 225 223 224 220 215 210 204 198 190 180 175 158 150 139 124 124 127 127 122 122 116
209 212 213 210 211 211 211 214 220 223 231 231 226 220 210 212 219 210 202 197 195 185 177 162 155 146 143 138 132 119 114 100
214 217 217 223 221 220 220 221 223 230 232 230 226 221 225 221 212 214 208 203 194 187 183 173 162 154 151 147 140 134 123 110
219 219 225 226 223 222 225 223 229 233 235 230 226 225 229 219 216 213 206 204 200 192 182 170 160 148 139 141 140 131 116 112
219 221 226 227 226 224 222 226 230 233 232 232 230 229 228 220 220 215 210 210 205 196 179 166 158 152 146 143 136 125 120 119
224 224 231 226 227 228 233 232 231 227 233 233 233 236 229 222 215 211 210 209 207 201 193 182 176 166 160 150 144 132 120 114
230 227 230 229 232 234 231 227 225 224 227 231 234 231 226 224 223 214 203 199 196 191 185 181 179 168 164 154 147 134 126 120
232 228 228 228 229 233 228 224 223 224 226 227 227 226 223 223 226 217 202 195 194 190 183 175 171 171 170 162 155 144 134 122
236 229 227 228 230 229 224 224 223 223 223 226 223 226 226 223 221 219 212 205 203 196 185 181 178 175 172 164 156 151 144 137
244 234 225 227 231 225 220 220 219 220 221 220 223 226 226 224 219 213 210 206 203 195 189 178 182 180 169 163 159 158 154 147
251 239 227 225 228 221 218 218 218 219 218 221 223 222 222 219 218 214 207 204 205 197 189 188 179 182 171 157 154 160 165 160
251 246 234 227 229 227 223 218 219 220 222 222 223 218 216 217 212 214 210 203 199 197 198 185 186 180 178 158 144 150 167 167
256 249 242 233 233 229 225 223 222 219 220 223 215 214 213 212 207 201 205 201 201 197 195 200 191 188 190 174 161 178 162 169
263 256 245 234 227 225 225 224 220 222 224 221 213 210 210 210 206 205 198 199 200 201 200 203 207 199 198 206 203 187 174 166
278 252 238 234 226 220 215 214 214 221 216 227 220 203 211 212 210 213 206 197 198 204 202 205 205 216 213 211 211 199 189 162
256 234 227 231 224 221 229 244 250 251 244 224 233 219 209 222 222 219 216 200 201 202 203 209 215 220 225 226 227 210 197 199
231 217 209 182 203 245 228 238 244 222 239 242 238 232 245 240 230 219 218 203 204 203 205 215 220 223 227 228 228 230 232 227
173 142 119 14 303 246 210 213 207 218 208 221 228 235 231 222 224 220 215 209 205 204 207 214 217 221 225 223 223 221 214 220